User: anonymous   Login
Location: *
(23.5860°S, 65.4036°W)
Time: 22:31:35
(UTC+00:00)
Language:

BREEZE-M DEB (TANK) - Orbit

View from above orbital plane
View from above orbital plane
View from above satellite
View from above satellite

Ground track
Ground track

The orbit data is extracted from the following two-line orbital elements,

1 28188U 04008B   19289.41972948  .00003087  00000-0  37882-3 0  9991
2 28188  49.5287   5.1652 5120317 220.7798  86.8135  5.44820121298992
Epoch (UTC): 16 October 2019 10:04:24
Eccentricity: 0.5120317
inclination: 49.5287°
perigee height: 279 km
apogee height: 14250 km
right ascension of ascending node: 5.1652°
argument of perigee: 220.7798°
revolutions per day: 5.44820121
mean anomaly at epoch: 86.8135°
orbit number at epoch: 29899

The dashed part of the orbit path shows where the satellite is in the earth's shadow,  

DLR